Location: ???????
(55.4362°N, 38.1183°E)
Time: 01:47:49
(UTC+00:00)

METEOR M2 - Pass Details

Date: 06 December 2021
Orbit: 818 x 827 km, 98.4° (Epoch: 28 January)

Event Time Altitude Azimuth Distance (km) Brightness Sun altitude
Rises 15:19:27 0° 154° (SSE) 3,357 ? -18.5°
Reaches altitude 10° 15:21:48 10° 152° (SSE) 2,427 ? -18.8°
Maximum altitude 15:27:09 71° 69° (ENE) 877 ? -19.6°
Drops below altitude 10° 15:32:31 10° 347° (NNW) 2,438 ? -20.3°
Sets 15:34:53 0° 346° (NNW) 3,374 ? -20.7°
